This demonstration page uses our WeatherBlox Daily Observations layout. Learn more.

Left ArrowRight Arrow

43.775, -88.43883

Hourly Observations for May 25, 2022

Temp ( °F °C ) Dew Point ( °F °C ) Humidity (%) Winds ( mph kmh ) Pressure ( in mb ) Visibility ( mi km ) Precip ( " mm )
12:53 am 00:53 Mostly Cloudy 53 11.7 32 0 45 45 ENE 9 15 30.16 1021 10 16 0.00 0.00
1:53 am 01:53 Cloudy 54 12.2 34 1.1 47 47 ENE 12 19 30.13 1020 10 16 0.00 0.00
2:53 am 02:53 Cloudy 54 12.2 34 1.1 47 47 E 8 13 30.11 1020 10 16 0.00 0.00
3:53 am 03:53 Cloudy 55 12.8 37 2.8 51 51 ENE 9 15 30.11 1020 10 16 0.00 0.00
4:53 am 04:53 Cloudy 55 12.8 40 4.4 57 57 E 13 20 30.11 1020 10 16 0.00 0.00
5:53 am 05:53 Cloudy 54 12.2 41 5 62 62 E 10 17 30.10 1019 10 16 0.00 0.00
6:53 am 06:53 Cloudy 54 12.2 41 5 62 62 E 15 24 30.07 1018 10 16 0.00 0.00
7:53 am 07:53 Cloudy 55 12.8 42 5.6 62 62 E 12 19 30.04 1017 10 16 0.00 0.00
8:53 am 08:53 Cloudy 55 12.8 42 5.6 62 62 E 12 19 30.03 1017 10 16 0.00 0.00
9:39 am 09:39 Cloudy with Light Rain 54 12.2 44 6.7 69 69 E 9 15 30.00 1016 10 16 0.00 0.00
9:53 am 09:53 Cloudy with Light Rain 54 12.2 44 6.7 69 69 E 10 17 30.01 1016 10 16 0.00 0.00
10:53 am 10:53 Cloudy with Rain 53 11.7 47 8.3 80 80 E 9 15 30.00 1016 3 5 0.05 1.27
11:15 am 11:15 Cloudy with Light Rain 53 11.7 48 8.9 83 83 E 10 17 29.98 1015 7 11 0.03 0.76
11:23 am 11:23 Cloudy with Light Rain 54 12.2 48 8.9 80 80 E 9 15 29.98 1015 8 13 0.04 1.02
11:32 am 11:32 Cloudy with Light Rain 53 11.7 48 8.9 83 83 E 9 15 29.97 1015 8 13 0.05 1.27
11:53 am 11:53 Cloudy with Light Rain 53 11.7 49 9.4 86 86 E 8 13 29.97 1015 5 8 0.08 2.03
12:01 pm 12:01 Cloudy with Light Rain 53 11.7 49 9.4 86 86 E 7 11 29.96 1015 6 10 0.00 0.00
12:53 pm 12:53 Cloudy with Light Rain 55 12.8 51 10.6 87 87 E 6 9 29.94 1014 10 16 0.06 1.52
1:53 pm 13:53 Cloudy with Light Rain 57 13.9 53 11.7 87 87 E 8 13 29.91 1013 10 16 0.05 1.27
2:53 pm 14:53 Cloudy with Light Rain 58 14.4 54 12.2 87 87 SE 9 15 29.89 1012 8 13 0.02 0.51
3:53 pm 15:53 Cloudy with Light Rain 59 15 55 12.8 87 87 SE 6 9 29.86 1011 7 11 0.03 0.76
4:26 pm 16:26 Cloudy with Light Rain 59 15 55 12.8 87 87 SE 8 13 29.84 1010 2 3 0.02 0.51
4:53 pm 16:53 Cloudy with Rain 59 15 56 13.3 90 90 ESE 6 9 29.83 1010 3 4 0.11 2.79
5:03 pm 17:03 Cloudy with Heavy Rain 59 15 56 13.3 90 90 E 6 9 29.83 1010 2 2 0.05 1.27
5:11 pm 17:11 Cloudy with Heavy Rain 59 15 56 13.3 90 90 E 5 7 29.83 1010 2 3 0.10 2.54
5:44 pm 17:44 Cloudy with Light Rain 60 15.6 56 13.3 86 86 W 5 7 29.81 1010 3 4 0.24 6.10
5:53 pm 17:53 Cloudy with Light Rain 59 15 57 13.9 93 93 Calm 29.80 1009 3 5 0.26 6.60
6:18 pm 18:18 Cloudy with Light Rain 61 16.1 57 13.9 87 87 ESE 7 11 29.78 1009 6 10 0.01 0.25
6:53 pm 18:53 Cloudy 62 16.7 58 14.4 86 86 SSE 9 15 29.80 1009 10 16 0.01 0.25
7:20 pm 19:20 Cloudy 62 16.7 59 15 90 90 SSE 5 7 29.79 1009 10 16 0.00 0.00
7:53 pm 19:53 Cloudy with Light Rain 62 16.7 59 15 90 90 SE 3 6 29.79 1009 3 4 0.02 0.51
8:01 pm 20:01 Cloudy with Mist and Fog 62 16.7 59 15 90 90 SE 3 6 29.77 1008 5 8 0.00 0.00
8:08 pm 20:08 Cloudy with Light Rain 62 16.7 59 15 90 90 SE 5 7 29.77 1008 5 8 0.01 0.25
8:53 pm 20:53 Cloudy with Light Rain 62 16.7 59 15 90 90 Calm 29.78 1008 4 6 0.02 0.51
9:04 pm 21:04 Cloudy with Heavy Rain 62 16.7 59 15 90 90 Calm 29.77 1008 2 3 0.07 1.78
9:11 pm 21:11 Cloudy with Heavy Rain 62 16.7 59 15 90 90 SSE 3 6 29.78 1008 1 2 0.24 6.10
9:27 pm 21:27 Cloudy with Rain 62 16.7 59 15 90 90 E 3 6 29.77 1008 2 3 0.42 10.67
9:29 pm 21:29 Cloudy with Rain 62 16.7 59 15 90 90 ESE 3 6 29.77 1008 2 3 0.42 10.67
9:39 pm 21:39 Cloudy with Light Rain 62 16.7 59 15 90 90 N 5 7 29.76 1008 3 4 0.44 11.18
9:46 pm 21:46 Cloudy with Light Rain 62 16.7 59 15 90 90 N 3 6 29.76 1008 3 5 0.44 11.18
9:53 pm 21:53 Cloudy with Light Rain 62 16.7 59 15 90 90 N 5 7 29.77 1008 4 6 0.44 11.18
10:14 pm 22:14 Mostly Clear with Mist and Fog 62 16.7 59 15 90 90 NE 3 6 29.75 1007 2 3 0.00 0.00
10:45 pm 22:45 Mostly Cloudy with Mist and Fog 62 16.7 60 15.6 93 93 Calm 29.74 1007 3 5 0.00 0.00
10:53 pm 22:53 Mostly Cloudy with Mist and Fog 62 16.7 60 15.6 93 93 Calm 29.74 1007 5 8 0.00 0.00
11:33 pm 23:33 Cloudy with Mist and Fog 62 16.7 60 15.6 93 93 SSE 3 6 29.74 1007 6 10 0.00 0.00
11:53 pm 23:53 Cloudy 63 17.2 60 15.6 90 90 SSE 6 9 29.74 1007 7 11 0.00 0.00

Powered by AerisWeather